Вернуться в каталог

TELE-X

АктивенСвязьGEO
NORAD 19919·PAYLOAD·🇸🇪 Sweden

Запущен Apr 2, 1989 с Guiana Space Centre

Loading…

TLE

СвежийSource: Space-Track

Эпоха: Sep 13, 2026, 08:04 UTC

1 19919U 89027A   26256.33648044 -.00000044  00000-0  00000-0 0  9997
2 19919  14.8683 351.6649 0008818 198.9396 187.2337  0.99169702118087

Отслеживайте TELE-X в реальном времени с AllMySat

Download on the App Store